Flag for United Kingdom Weather past 2 weeks in Edinburgh, Scotland, United Kingdom

Now
46 °F

Sunny.


Feels Like: 44 °F
Forecast: 37 / 55 °F
Wind: 5 mph from Northeast

Location: Edinburgh Airport


UV Index: 3 (Moderate)

Visibility: 10 mi


Pressure: 30.15 "Hg

Humidity: 71%

Dew point: 37 °F

Location of EdinburghLocation

Historic Weather in Edinburgh

°F

Edinburgh temperature yesterday

Maximum temperature yesterday: 55 °F (at 12:20 PM)
Minimum temperature yesterday: 41 °F (at 11:20 PM)
Average temperature yesterday: 49 °F

Past Weeks' High & Low Weather Summary

 TemperatureHumidityPressure
High61 °F (Apr 6, 11:50 AM)100% (Apr 3, 7:20 PM)30.39 "Hg (Apr 3, 7:20 PM)
Low30 °F (Apr 15, 4:50 AM)39% (Apr 14, 3:50 PM)29.47 "Hg (Apr 6, 10:50 AM)
Average48 °F76%29.94 "Hg
* Reported Apr 3 7:20 PM — Apr 18 7:20 PM, Edinburgh, Weather by CustomWeather, © 2014

Note: Actual official high and low records may vary slightly from our data, if they occured in-between our weather recording intervals... More about our weather records

Advertising

Historic Weather Conditions — Data for Previous 24 hours

 ConditionsComfort  
Time TempWeatherWind HumidityBarometerVisibility
7:20 PM
Apr 18
52 °FSunny.6 mph58%30.12 "Hg10 mi
6:50 PM57 °FSunny.3 mph39%30.12 "Hg10 mi
6:20 PM57 °FSunny.3 mph41%30.12 "Hg10 mi
5:50 PM57 °FSunny.8 mph41%30.12 "Hg10 mi
5:20 PM57 °FSunny.7 mph41%30.12 "Hg10 mi
4:50 PM57 °FSunny.7 mph41%30.15 "Hg10 mi
4:20 PM57 °FPassing clouds.5 mph41%30.15 "HgN/A
3:50 PM57 °FPassing clouds.7 mph41%30.15 "HgN/A
3:20 PM55 °FPassing clouds.8 mph44%30.15 "HgN/A
2:20 PM55 °FPassing clouds.7 mph44%30.18 "HgN/A
1:50 PM54 °FPassing clouds.6 mph47%30.18 "HgN/A
1:20 PM54 °FPassing clouds.6 mph44%30.18 "HgN/A
12:50 PM54 °FSunny.5 mph41%30.18 "Hg10 mi
12:20 PM52 °FSunny.5 mph44%30.18 "Hg10 mi
11:50 AM52 °FSunny.3 mph44%30.21 "Hg10 mi
11:20 AM50 °FSunny.5 mph47%30.21 "Hg10 mi
10:50 AM48 °FSunny.3 mph50%30.21 "Hg10 mi
10:20 AM48 °FSunny.3 mph50%30.21 "Hg10 mi
9:50 AM46 °FSunny.2 mph50%30.21 "Hg10 mi
9:20 AM45 °FQuite cool.2 mph53%30.21 "HgN/A
8:50 AM43 °FPassing clouds.5 mph61%30.21 "HgN/A
8:20 AM41 °FSunny.3 mph70%30.21 "Hg10 mi
7:50 AM37 °FSunny.3 mph75%30.21 "Hg10 mi
7:20 AM34 °FSunny.3 mph87%30.18 "Hg10 mi
6:50 AM32 °FClear.2 mph87%30.18 "Hg10 mi
6:20 AM30 °FClear.2 mph86%30.18 "Hg10 mi
5:50 AM30 °FClear.2 mph86%30.18 "Hg10 mi
5:20 AM30 °FClear.2 mph86%30.15 "Hg10 mi
4:50 AM32 °FClear.3 mph80%30.18 "Hg10 mi
4:20 AM34 °FClear.2 mph75%30.18 "Hg10 mi
3:50 AM36 °FClear.No wind70%30.18 "Hg10 mi
3:20 AM34 °FClear.2 mph81%30.18 "Hg10 mi
2:50 AM37 °FPassing clouds.7 mph70%30.18 "HgN/A
2:20 AM34 °FChilly.6 mph75%30.15 "HgN/A
1:50 AM37 °FClear.3 mph65%30.15 "Hg10 mi
1:20 AM39 °FClear.2 mph61%30.15 "Hg10 mi
12:50 AM41 °FPassing clouds.6 mph57%30.15 "HgN/A
12:20 AM41 °FPassing clouds.6 mph57%30.15 "HgN/A
11:50 PM
Apr 17
41 °FClear.3 mph61%30.12 "Hg10 mi
11:20 PM41 °FClear.No wind57%30.12 "Hg10 mi
10:50 PM43 °FClear.3 mph57%30.12 "Hg10 mi
10:20 PM43 °FQuite cool.5 mph57%30.12 "HgN/A
9:50 PM45 °FClear.2 mph57%30.09 "Hg10 mi
9:20 PM45 °FPassing clouds.6 mph57%30.07 "HgN/A
8:50 PM46 °FPassing clouds.9 mph62%30.07 "HgN/A
8:20 PM48 °FPassing clouds.9 mph54%30.07 "HgN/A
Weather by CustomWeather, © 2014

See weather overview